Regional Weather Roundup
Issued by NWS Wilmington, NC

Home | Current Version | Previous Version | Text Only | Print | Product List | Glossary On
Versions: 1 2 3 4 5 6 7 8 9 10 11 12 13 14 15 16 17 18 19 20 21 22 23 24 25 26 27
000
ASUS42 KILM 100612
RWRILM
RWRILM
REGIONAL HOURLY WEATHER ROUNDUP
NATIONAL WEATHER SERVICE WILMINGTON NC
100 AM EST SAT DEC 10 2016

NOTE: "FAIR" INDICATES FEW OR NO CLOUDS BELOW 12,000 FEET WITH NO
SIGNIFICANT WEATHER AND/OR OBSTRUCTIONS TO VISIBILITY.

...............WFO WILMINGTON COUNTY WARNING AREA...............

......COASTAL NC AND SC COUNTIES......

CITY           SKY/WX    TMP DP  RH WIND       PRES   REMARKS
WILMINGTON     CLEAR     29  21  72 N7        30.48S WCI  22
N MYRTLE BEACH CLEAR     30  23  75 N3        30.48R
MYRTLE BEACH   CLEAR     34  23  64 N5        30.50S WCI  30

......INLAND NC AND SC COUNTIES.......

CITY           SKY/WX    TMP DP  RH WIND       PRES   REMARKS
LUMBERTON      CLEAR     28  22  78 N6        30.50R WCI  22
ELIZABETHTOWN  CLEAR     28  24  85 NW3       30.49S
WHITEVILLE     CLEAR     29  26  86 CALM      30.48S
FLORENCE       CLEAR     29  23  78 N7        30.49F WCI  22
DARLINGTON     CLEAR     25  23  92 N3        30.50F
KINGSTREE      FAIR      27  23  86 CALM      30.49S
HARTSVILLE     FAIR      30  18  59 N7        30.48F WCI  23
BENNETTSVILLE  FAIR      30  28  93 CALM      30.50S
CONWAY         FAIR      27  25  93 CALM      30.49S FOG
GEORGETOWN     NOT AVBL
MARION         FAIR      28  27  93 N3        30.50S

....................REST OF NORTH CAROLINA......................

.........EASTERN NC.........

CITY           SKY/WX    TMP DP  RH WIND       PRES   REMARKS
CAPE HATTERAS  CLEAR     38  19  46 VRB7      30.42S WCI  33
JACKSONVILLE   CLEAR     22  19  89 CALM      30.48S
MOREHEAD CITY  CLEAR     35  25  66 N7        30.46R WCI  29
KENANSVILLE    CLEAR     23  21  93 CALM      30.48F
NEW BERN       CLEAR     28  22  78 W3        30.48S
ELIZABETH CITY CLEAR     27  18  69 W6        30.45R WCI  20

.........CENTRAL NC.........

CITY           SKY/WX    TMP DP  RH WIND       PRES   REMARKS
RALEIGH DURHAM CLEAR     26  14  60 CALM      30.50S
ROCKY MOUNT    CLEAR     26  17  68 CALM      30.49R
ROANOKE RAPIDS NOT AVBL
FAYETTEVILLE   CLEAR     30  16  56 N5        30.49F WCI  25
HOFFMAN        CLEAR     25  21  86 N3        30.50S

.........WESTERN NC.........

CITY           SKY/WX    TMP DP  RH WIND       PRES   REMARKS
CHARLOTTE      CLEAR     27  13  55 N3        30.49R
GREENSBORO     PTCLDY    25  13  60 CALM      30.47S
HICKORY        NOT AVBL
BOONE          NOT AVBL
ASHEVILLE      NOT AVBL

.....................REST OF SOUTH CAROLINA.....................

.........EASTERN SC.........

CITY           SKY/WX    TMP DP  RH WIND       PRES   REMARKS
CHARLESTON     CLEAR     36  23  59 NE13      30.45F WCI  27
BEAUFORT MCAS  CLEAR     36  25  64 NE7       30.46R WCI  30
HILTON HEAD    CLEAR     41  28  60 N7        30.46R

.........CENTRAL SC.........

CITY           SKY/WX    TMP DP  RH WIND       PRES   REMARKS
COLUMBIA       CLEAR     28  23  81 CALM      30.48F
ORANGEBURG     CLEAR     29  26  89 CALM      30.48F
SUMTER SHAW    CLEAR     28  20  72 NE6       30.46F WCI  22

.........WESTERN SC.........

CITY           SKY/WX    TMP DP  RH WIND       PRES   REMARKS
GREENVILLE     NOT AVBL
ROCK HILL      CLEAR     25  18  74 CALM      30.49S
ANDERSON       CLEAR     30  14  51 NE3       30.47S
CLEMSON        NOT AVBL
GREENWOOD      CLEAR     27  17  66 NE5       30.49S WCI  22


...................COASTAL AND OFFSHORE REPORTS..................

................LOCAL PIERS AND NC RESERVE................


STATION/POSITION TIME  SKY/WX   TEMP    WIND        PRES    VSBY
                                AIR SEA DIR/SP/G
                 (UTC)          (F)     (DEG/KT/KT) (MB)    (MI)
JOHNY MRCER PIER 0548                   350/  7/ 10 1030.7F
NC RESRV MASNBRO 0445            31        CALM     1031.0
OCEAN CREST PIER NOT AVBL
SPRINGMAID  PIER NOT AVBL


................COASTAL AND OFFSHORE BUOYS................


STATION/POSITION TIME  SKY/WX   TEMP    WIND        PRES    VSBY
                                AIR SEA DIR/SP/G
                 (UTC)          (F)     (DEG/KT/KT) (MB)    (MI)
DIMNDSHOAL 41025 0550            42 77   10/ 14/ 21 1029.6F
WVE H/P(F/S)=  5/ 9 SWL H/P/D(F/S/D)=  3/ 60/ 9

CAPE LOOKOUT     0600            38     340/ 12/ 13 1031.0R
ONSLOW BAY 41036 NOT AVBL
ONSLOW BAY 41064 0508            43 69  360/ 12/ 17 1031.0S
ONSLOW BAY 41159 0543               69                N/A
WVE H/P(F/S)=  3/ 4

5SE WRITBC 41038 0508            38 60  360/ 17/ 25 1031.4R
MASNBO INL 41110 0529               60                N/A
WVE H/P(F/S)=  2/11

WILM HARBR 41108 0556               60                N/A
WVE H/P(F/S)=  3/ 3

27SE WRITB 41037 0508            43 69   20/ 12/ 17 1030.9R
FRYING PAN 41013 0600            45 72  350/ 14/ 19 1031.0
SUNST NRSH 41024 0508            39 59   40/ 14/ 16 1031.4F
CAPRS NRSH 41029 0508            44 60   20/ 17/ 21 1030.9F
EDISTO     41004 0550            50 73   20/ 14/ 19 1029.6F
WVE H/P(F/S)=  4/ 5 SWL H/P/D(F/S/D)=  2/ 60/ 8



..........OFFSHORE BUOYS BEYOND 100 NM OFFSHORE...........
.....IN A TRIANGLE---HAT TO BERMUDA TO BAHAMAS TO HAT.....


STATION/POSITION TIME  SKY/WX   TEMP    WIND        PRES    VSBY
                                AIR SEA DIR/SP/G
                 (UTC)          (F)     (DEG/KT/KT) (MB)    (MI)
150E HAT   41001 NOT AVBL
W BERMUDA  41048 0550            63 72  320/ 16/ 19 1023.1F
WVE H/P(F/S)=  9/ 8 SWL H/P/D(F/S/D)=  7/340/ 8

ATLANTIC S 41049 0550            72 75  350/ 10/ 12 1020.2F
WVE H/P(F/S)=  4/ 9 SWL H/P/D(F/S/D)=  3/310/ 9

E BAHAMAS  41046 0600            76 79   50/  4/  6 1020.4
NE BAHAMAS 41047 0600            74 78   30/ 16/ 21 1021.0
120E CANVRL41010 NOT AVBL

END




USA.gov is the U.S. government's official web portal to all federal, state and local government web resources and services.